Location: Newark
(47.5833°N, 8.1500°E)
Time: 08:45:28
(UTC+00:00)

Vanguard 1 - Pass Details

Date: 05 November 2020
Orbit: 650 x 3833 km, 34.2° (Epoch: 29 November)

Event Time Altitude Azimuth Distance (km) Brightness Sun altitude
Rises 16:49:44 0° 281° (W) 7,978 16.0 -8.2°
Reaches altitude 10° 16:56:52 10° 271° (W) 6,885 15.8 -9.4°
Maximum altitude 17:12:17 25° 227° (SW) 5,049 14.4 -11.9°
Drops below altitude 10° 17:24:09 10° 181° (S) 5,187 13.9 -13.9°
Sets 17:28:34 0° 168° (SSE) 5,721 13.9 -14.6°
